User: anonymous   Login
Location: Unspecified
(0.0000°N, 0.0000°E)
Time: 08:45:54
(UTC+01:00)
Language:

Cosmos 1300 - Orbit

View from above orbital plane
View from above orbital plane
View from above satellite
View from above satellite

Ground track
Ground track

The orbit data is extracted from the following two-line orbital elements,

1 12785U 81082A   17055.92713878 +.00001298 +00000-0 +64992-4 0  9999
2 12785 082.5059 184.2400 0000340 096.0938 014.9873 15.16563207934593
Epoch (UTC): 24 February 2017 22:15:04
Eccentricity: 0.0000340
inclination: 82.5059°
perigee height: 516 km
apogee height: 516 km
right ascension of ascending node: 184.2400°
argument of perigee: 96.0938°
revolutions per day: 15.16563207
mean anomaly at epoch: 14.9873°
orbit number at epoch: 93459

The dashed part of the orbit path shows where the satellite is in the earth's shadow,  

DLR